Time,TemperatureF,DewpointF,PressureIn,WindDirection,WindDirectionDegrees,WindSpeedMPH,WindSpeedGustMPH,Humidity,HourlyPrecipIn,Conditions,Clouds,dailyrainin,SoftwareType,DateUTC
2013-03-05 00:03:00,48.5,46.0,29.98,East,89,1.0,4.0,91,0.00,,OVC014,0.00,VWS V13.01,2013-03-05 08:03:00,
2013-03-05 00:08:00,48.5,46.0,29.98,ENE,76,0.0,4.0,91,0.00,,OVC014,0.00,VWS V13.01,2013-03-05 08:08:00,
2013-03-05 00:13:00,48.8,46.6,29.98,East,90,0.0,3.0,92,0.00,,OVC014,0.00,VWS V13.01,2013-03-05 08:13:00,
2013-03-05 00:18:00,48.7,46.5,29.98,ENE,74,0.0,3.0,92,0.00,,OVC014,0.00,VWS V13.01,2013-03-05 08:18:00,
2013-03-05 00:23:00,48.8,46.6,29.98,ENE,74,0.0,3.0,92,0.00,,OVC014,0.00,VWS V13.01,2013-03-05 08:23:00,
2013-03-05 00:28:00,48.8,46.6,29.98,ENE,74,0.0,3.0,92,0.00,,OVC014,0.00,VWS V13.01,2013-03-05 08:28:00,
2013-03-05 00:33:00,48.9,46.7,29.99,ENE,74,0.0,3.0,92,0.00,,OVC014,0.00,VWS V13.01,2013-03-05 08:33:00,
2013-03-05 00:38:00,49.0,46.8,29.98,ENE,71,0.0,0.0,92,0.00,,OVC014,0.00,VWS V13.01,2013-03-05 08:38:00,
2013-03-05 00:43:00,49.0,46.8,29.98,ENE,71,0.0,0.0,92,0.00,,OVC014,0.00,VWS V13.01,2013-03-05 08:43:00,
2013-03-05 00:48:00,48.9,46.7,29.98,ENE,71,0.0,0.0,92,0.00,,OVC014,0.00,VWS V13.01,2013-03-05 08:48:00,
2013-03-05 00:53:00,48.9,46.7,29.98,ENE,71,0.0,0.0,92,0.00,,OVC014,0.00,VWS V13.01,2013-03-05 08:53:00,
2013-03-05 00:58:00,48.9,46.7,29.98,ENE,71,0.0,0.0,92,0.00,,OVC014,0.00,VWS V13.01,2013-03-05 08:58:00,
2013-03-05 01:03:00,48.8,46.6,29.97,ENE,71,1.0,2.0,92,0.00,,CLR,0.00,VWS V13.01,2013-03-05 09:03:00,
2013-03-05 01:08:00,48.2,45.7,29.97,ENE,71,0.0,0.0,91,0.00,,CLR,0.00,VWS V13.01,2013-03-05 09:08:00,
2013-03-05 01:13:00,48.0,45.5,29.97,ENE,71,0.0,0.0,91,0.00,,CLR,0.00,VWS V13.01,2013-03-05 09:13:00,
2013-03-05 01:18:00,48.0,45.8,29.97,ENE,71,0.0,0.0,92,0.00,,CLR,0.00,VWS V13.01,2013-03-05 09:18:00,
2013-03-05 01:23:00,48.0,45.8,29.96,ENE,71,0.0,0.0,92,0.00,,CLR,0.00,VWS V13.01,2013-03-05 09:23:00,
2013-03-05 01:28:00,48.0,45.8,29.96,ENE,71,0.0,0.0,92,0.00,,CLR,0.00,VWS V13.01,2013-03-05 09:28:00,
2013-03-05 01:33:00,48.4,46.5,29.97,NW,311,0.0,4.0,93,0.00,,CLR,0.00,VWS V13.01,2013-03-05 09:33:00,
2013-03-05 01:38:00,48.7,46.8,29.96,NW,319,1.0,2.0,93,0.00,,CLR,0.00,VWS V13.01,2013-03-05 09:38:00,
2013-03-05 01:43:00,48.9,47.2,29.96,NW,319,0.0,2.0,94,0.00,,CLR,0.00,VWS V13.01,2013-03-05 09:43:00,
2013-03-05 01:48:00,49.1,47.5,29.96,NW,319,0.0,2.0,94,0.00,,CLR,0.00,VWS V13.01,2013-03-05 09:48:00,
2013-03-05 01:53:00,49.1,47.5,29.96,NNW,336,0.0,2.0,94,0.00,,CLR,0.00,VWS V13.01,2013-03-05 09:53:00,
2013-03-05 01:58:00,48.5,46.6,29.96,North,351,0.0,2.0,93,0.00,,CLR,0.00,VWS V13.01,2013-03-05 09:58:00,
2013-03-05 02:03:00,48.2,46.3,29.95,North,355,0.0,2.0,93,0.00,,BKN014,0.00,VWS V13.01,2013-03-05 10:03:00,
2013-03-05 02:08:00,48.2,46.3,29.95,North,355,0.0,0.0,93,0.00,,BKN014,0.00,VWS V13.01,2013-03-05 10:08:00,
2013-03-05 02:13:00,48.3,46.7,29.95,North,355,0.0,0.0,94,0.00,,BKN014,0.00,VWS V13.01,2013-03-05 10:13:00,
2013-03-05 02:18:00,48.4,46.8,29.95,North,355,0.0,0.0,94,0.00,,BKN014,0.00,VWS V13.01,2013-03-05 10:18:00,
2013-03-05 02:23:00,48.5,46.9,29.95,North,355,0.0,1.0,94,0.00,,BKN014,0.00,VWS V13.01,2013-03-05 10:23:00,
2013-03-05 02:28:00,48.6,47.0,29.95,NW,307,0.0,2.0,94,0.00,,BKN014,0.00,VWS V13.01,2013-03-05 10:28:00,
2013-03-05 02:33:00,48.7,47.0,29.96,WNW,302,1.0,3.0,94,0.00,,BKN014,0.00,VWS V13.01,2013-03-05 10:33:00,
2013-03-05 02:38:00,48.7,47.0,29.95,WNW,302,0.0,0.0,94,0.00,,BKN014,0.00,VWS V13.01,2013-03-05 10:38:00,
2013-03-05 02:43:00,48.8,47.2,29.96,NW,306,0.0,1.0,94,0.00,,BKN014,0.00,VWS V13.01,2013-03-05 10:43:00,
2013-03-05 02:48:00,48.8,47.2,29.96,WNW,302,0.0,1.0,94,0.00,,BKN014,0.00,VWS V13.01,2013-03-05 10:48:00,
2013-03-05 02:53:00,48.8,47.2,29.96,North,351,1.0,1.0,94,0.00,,BKN014,0.00,VWS V13.01,2013-03-05 10:53:00,
2013-03-05 02:58:00,48.5,46.9,29.96,North,351,0.0,1.0,94,0.00,,BKN014,0.00,VWS V13.01,2013-03-05 10:58:00,
2013-03-05 03:03:00,48.4,46.8,29.97,NE,38,0.0,1.0,94,0.00,,OVC014,0.00,VWS V13.01,2013-03-05 11:03:00,
2013-03-05 03:08:00,48.3,46.7,29.97,ENE,76,0.0,1.0,94,0.00,,OVC014,0.00,VWS V13.01,2013-03-05 11:08:00,
2013-03-05 03:13:00,48.2,46.6,29.97,ENE,76,0.0,1.0,94,0.00,,OVC014,0.00,VWS V13.01,2013-03-05 11:13:00,
2013-03-05 03:18:00,48.2,46.6,29.97,ENE,76,0.0,1.0,94,0.00,,OVC014,0.00,VWS V13.01,2013-03-05 11:18:00,
2013-03-05 03:23:00,48.1,46.5,29.97,ENE,76,0.0,1.0,94,0.00,,OVC014,0.00,VWS V13.01,2013-03-05 11:23:00,
2013-03-05 03:28:00,48.1,46.5,29.97,NE,55,0.0,2.0,94,0.00,,OVC014,0.00,VWS V13.01,2013-03-05 11:28:00,
2013-03-05 03:33:00,48.1,46.5,29.97,NE,49,0.0,2.0,94,0.00,,OVC014,0.00,VWS V13.01,2013-03-05 11:33:00,
2013-03-05 03:38:00,48.2,46.8,29.97,NE,54,1.0,1.0,95,0.00,,OVC014,0.00,VWS V13.01,2013-03-05 11:38:00,
2013-03-05 03:43:00,48.3,46.9,29.97,NE,56,0.0,2.0,95,0.00,,OVC014,0.00,VWS V13.01,2013-03-05 11:43:00,
2013-03-05 03:48:00,48.3,46.9,29.97,ESE,108,0.0,2.0,95,0.00,,OVC014,0.00,VWS V13.01,2013-03-05 11:48:00,
2013-03-05 03:53:00,48.3,46.9,29.97,ENE,76,0.0,2.0,95,0.00,,OVC014,0.00,VWS V13.01,2013-03-05 11:53:00,
2013-03-05 03:58:00,48.3,46.9,29.97,SE,130,0.0,3.0,95,0.00,,OVC014,0.00,VWS V13.01,2013-03-05 11:58:00,
2013-03-05 04:03:00,48.3,46.9,29.97,East,101,0.0,3.0,95,0.00,,OVC014,0.00,VWS V13.01,2013-03-05 12:03:00,
2013-03-05 04:08:00,48.3,46.9,29.97,ENE,65,0.0,0.0,95,0.00,,OVC014,0.00,VWS V13.01,2013-03-05 12:08:00,
2013-03-05 04:13:00,48.3,46.9,29.97,ENE,60,2.0,2.0,95,0.00,,OVC014,0.00,VWS V13.01,2013-03-05 12:13:00,
2013-03-05 04:18:00,48.3,46.9,29.97,East,80,1.0,2.0,95,0.00,,OVC014,0.00,VWS V13.01,2013-03-05 12:18:00,
2013-03-05 04:23:00,48.4,47.0,29.97,East,80,0.0,2.0,95,0.00,,OVC014,0.00,VWS V13.01,2013-03-05 12:23:00,
2013-03-05 04:28:00,48.5,47.1,29.97,East,80,0.0,2.0,95,0.00,,OVC014,0.00,VWS V13.01,2013-03-05 12:28:00,
2013-03-05 04:33:00,48.6,47.2,29.97,ENE,61,1.0,2.0,95,0.00,,OVC014,0.00,VWS V13.01,2013-03-05 12:33:00,
2013-03-05 04:38:00,48.7,47.3,29.97,ENE,61,0.0,0.0,95,0.00,,OVC014,0.00,VWS V13.01,2013-03-05 12:38:00,
2013-03-05 04:44:00,48.8,47.4,29.97,ENE,61,0.0,1.0,95,0.00,,OVC014,0.00,VWS V13.01,2013-03-05 12:44:00,
2013-03-05 04:49:00,48.8,47.4,29.96,NE,55,0.0,2.0,95,0.00,,OVC014,0.00,VWS V13.01,2013-03-05 12:49:00,
2013-03-05 04:54:00,48.7,47.3,29.96,ESE,107,1.0,2.0,95,0.00,,OVC014,0.00,VWS V13.01,2013-03-05 12:54:00,
2013-03-05 04:59:00,48.6,47.2,29.96,ESE,107,0.0,2.0,95,0.00,,OVC014,0.00,VWS V13.01,2013-03-05 12:59:00,
2013-03-05 05:04:00,48.6,47.2,29.96,East,88,0.0,2.0,95,0.00,,OVC012,0.00,VWS V13.01,2013-03-05 13:04:00,
2013-03-05 05:09:00,48.6,47.2,29.96,East,88,0.0,0.0,95,0.00,,OVC012,0.00,VWS V13.01,2013-03-05 13:09:00,
2013-03-05 05:14:00,48.6,47.2,29.96,East,88,0.0,0.0,95,0.00,,OVC012,0.00,VWS V13.01,2013-03-05 13:14:00,
2013-03-05 05:19:00,48.6,47.2,29.96,East,88,0.0,1.0,95,0.00,,OVC012,0.00,VWS V13.01,2013-03-05 13:19:00,
2013-03-05 05:24:00,48.6,47.2,29.96,East,88,0.0,1.0,95,0.00,,OVC012,0.00,VWS V13.01,2013-03-05 13:24:00,
2013-03-05 05:29:00,48.6,47.2,29.96,East,88,0.0,1.0,95,0.00,,OVC012,0.00,VWS V13.01,2013-03-05 13:29:00,
2013-03-05 05:34:00,48.7,47.3,29.97,East,88,0.0,1.0,95,0.00,,OVC012,0.00,VWS V13.01,2013-03-05 13:34:00,
2013-03-05 05:39:00,48.7,47.3,29.97,East,88,0.0,0.0,95,0.00,,OVC012,0.00,VWS V13.01,2013-03-05 13:39:00,
2013-03-05 05:44:00,48.7,47.3,29.97,East,88,0.0,0.0,95,0.00,,OVC012,0.00,VWS V13.01,2013-03-05 13:44:00,
2013-03-05 05:49:00,48.8,47.4,29.97,East,88,0.0,1.0,95,0.00,,OVC012,0.00,VWS V13.01,2013-03-05 13:49:00,
2013-03-05 05:54:00,48.8,47.4,29.97,East,88,0.0,1.0,95,0.00,,OVC012,0.00,VWS V13.01,2013-03-05 13:54:00,
2013-03-05 05:59:00,48.8,47.4,29.98,East,88,0.0,1.0,95,0.00,,OVC012,0.00,VWS V13.01,2013-03-05 13:59:00,
2013-03-05 06:04:00,48.8,47.4,29.98,East,88,1.0,1.0,95,0.00,,OVC012,0.00,VWS V13.01,2013-03-05 14:04:00,
2013-03-05 06:09:00,48.6,47.2,29.98,East,88,0.0,0.0,95,0.00,,OVC012,0.00,VWS V13.01,2013-03-05 14:09:00,
2013-03-05 06:14:00,48.6,47.2,29.98,East,88,0.0,0.0,95,0.00,,OVC012,0.00,VWS V13.01,2013-03-05 14:14:00,
2013-03-05 06:19:00,48.6,47.2,29.98,East,88,0.0,0.0,95,0.00,,OVC012,0.00,VWS V13.01,2013-03-05 14:19:00,
2013-03-05 06:24:00,48.6,47.2,29.98,East,88,0.0,1.0,95,0.00,,OVC012,0.00,VWS V13.01,2013-03-05 14:24:00,
2013-03-05 06:29:00,48.5,47.1,29.98,East,88,0.0,1.0,95,0.00,,OVC012,0.00,VWS V13.01,2013-03-05 14:29:00,
2013-03-05 06:34:00,48.4,47.0,29.98,East,88,0.0,1.0,95,0.00,,OVC012,0.00,VWS V13.01,2013-03-05 14:34:00,
2013-03-05 06:39:00,48.3,46.9,29.98,East,88,0.0,0.0,95,0.00,,OVC012,0.00,VWS V13.01,2013-03-05 14:39:00,
2013-03-05 06:44:00,48.2,46.8,29.98,ENE,63,0.0,3.0,95,0.00,,OVC012,0.00,VWS V13.01,2013-03-05 14:44:00,
2013-03-05 06:49:00,48.1,46.7,29.98,ENE,63,0.0,3.0,95,0.00,,OVC012,0.00,VWS V13.01,2013-03-05 14:49:00,
2013-03-05 06:54:00,48.1,46.7,29.98,ENE,63,0.0,3.0,95,0.00,,OVC012,0.00,VWS V13.01,2013-03-05 14:54:00,
2013-03-05 06:59:00,48.1,46.7,29.98,ENE,58,0.0,3.0,95,0.00,,OVC012,0.00,VWS V13.01,2013-03-05 14:59:00,
2013-03-05 07:04:00,48.1,46.7,29.98,NE,56,0.0,3.0,95,0.00,,OVC014,0.00,VWS V13.01,2013-03-05 15:04:00,
2013-03-05 07:09:00,48.1,46.7,29.97,East,81,0.0,2.0,95,0.00,,OVC014,0.00,VWS V13.01,2013-03-05 15:09:00,
2013-03-05 07:14:00,48.1,46.7,29.98,ENE,78,0.0,2.0,95,0.00,,OVC014,0.00,VWS V13.01,2013-03-05 15:14:00,
2013-03-05 07:19:00,48.0,46.6,29.98,ENE,78,0.0,2.0,95,0.00,,OVC014,0.00,VWS V13.01,2013-03-05 15:19:00,
2013-03-05 07:24:00,48.1,46.7,29.98,ENE,78,0.0,2.0,95,0.00,,OVC014,0.00,VWS V13.01,2013-03-05 15:24:00,
2013-03-05 07:29:00,48.3,46.9,29.97,ENE,78,0.0,2.0,95,0.00,,OVC014,0.00,VWS V13.01,2013-03-05 15:29:00,
2013-03-05 07:34:00,48.4,47.0,29.98,ENE,61,0.0,3.0,95,0.00,,OVC014,0.00,VWS V13.01,2013-03-05 15:34:00,
2013-03-05 07:39:00,48.5,47.1,29.98,ENE,58,1.0,2.0,95,0.00,,OVC014,0.00,VWS V13.01,2013-03-05 15:39:00,
2013-03-05 07:44:00,48.6,47.2,29.97,ENE,58,0.0,2.0,95,0.00,,OVC014,0.00,VWS V13.01,2013-03-05 15:44:00,
2013-03-05 07:49:00,48.7,47.3,29.97,ENE,58,0.0,2.0,95,0.00,,OVC014,0.00,VWS V13.01,2013-03-05 15:49:00,
2013-03-05 07:54:00,48.8,47.4,29.97,ENE,57,0.0,2.0,95,0.00,,OVC014,0.00,VWS V13.01,2013-03-05 15:54:00,
2013-03-05 07:59:00,48.9,47.5,29.97,ESE,121,0.0,2.0,95,0.00,,OVC014,0.00,VWS V13.01,2013-03-05 15:59:00,
2013-03-05 08:04:00,49.0,47.6,29.97,ESE,121,0.0,2.0,95,0.00,,OVC014,0.00,VWS V13.01,2013-03-05 16:04:00,
2013-03-05 08:09:00,49.1,47.7,29.97,East,91,0.0,2.0,95,0.00,,OVC014,0.00,VWS V13.01,2013-03-05 16:09:00,
2013-03-05 08:14:00,49.3,47.9,29.97,East,89,0.0,2.0,95,0.00,,OVC014,0.00,VWS V13.01,2013-03-05 16:14:00,
2013-03-05 08:19:00,49.5,48.1,29.97,East,89,0.0,2.0,95,0.00,,OVC014,0.00,VWS V13.01,2013-03-05 16:19:00,
2013-03-05 08:24:00,49.6,48.0,29.97,East,89,0.0,2.0,94,0.00,,OVC014,0.00,VWS V13.01,2013-03-05 16:24:00,
2013-03-05 08:29:00,49.7,48.0,29.97,East,89,0.0,2.0,94,0.00,,OVC014,0.00,VWS V13.01,2013-03-05 16:29:00,
2013-03-05 08:34:00,49.9,48.2,29.97,WNW,287,1.0,2.0,94,0.00,,OVC014,0.00,VWS V13.01,2013-03-05 16:34:00,
2013-03-05 08:39:00,50.2,48.3,29.97,WNW,296,0.0,0.0,93,0.00,,OVC014,0.00,VWS V13.01,2013-03-05 16:39:00,
2013-03-05 08:44:00,50.5,48.6,29.97,SSE,156,0.0,2.0,93,0.00,,OVC014,0.00,VWS V13.01,2013-03-05 16:44:00,
2013-03-05 08:49:00,50.7,48.5,29.97,ENE,71,0.0,2.0,92,0.00,,OVC014,0.00,VWS V13.01,2013-03-05 16:49:00,
2013-03-05 08:55:00,51.2,49.0,29.97,ENE,71,0.0,2.0,92,0.00,,OVC014,0.00,VWS V13.01,2013-03-05 16:55:00,
2013-03-05 09:00:00,51.5,49.0,29.97,West,264,0.0,2.0,91,0.00,,OVC014,0.00,VWS V13.01,2013-03-05 17:00:00,
2013-03-05 09:05:00,51.7,48.9,29.98,WNW,295,0.0,3.0,90,0.00,,OVC014,0.00,VWS V13.01,2013-03-05 17:05:00,
2013-03-05 09:10:00,51.8,49.0,29.98,West,271,0.0,3.0,90,0.00,,OVC014,0.00,VWS V13.01,2013-03-05 17:10:00,
2013-03-05 09:15:00,51.8,49.0,29.99,WSW,242,0.0,5.0,90,0.00,,OVC014,0.00,VWS V13.01,2013-03-05 17:15:00,
2013-03-05 09:20:00,52.0,48.9,29.99,WNW,282,1.0,5.0,89,0.00,,OVC014,0.00,VWS V13.01,2013-03-05 17:20:00,
2013-03-05 09:25:00,52.1,49.0,29.99,West,274,1.0,5.0,89,0.00,,OVC014,0.00,VWS V13.01,2013-03-05 17:25:00,
2013-03-05 09:30:00,52.0,48.9,29.99,SW,233,0.0,5.0,89,0.00,,OVC014,0.00,VWS V13.01,2013-03-05 17:30:00,
2013-03-05 09:35:00,51.9,48.8,29.99,WNW,292,2.0,5.0,89,0.00,,OVC014,0.00,VWS V13.01,2013-03-05 17:35:00,
2013-03-05 09:40:00,51.9,48.8,30.00,West,269,0.0,0.0,89,0.00,,OVC014,0.00,VWS V13.01,2013-03-05 17:40:00,
2013-03-05 09:45:00,51.9,49.1,30.00,WSW,247,0.0,2.0,90,0.00,,OVC014,0.00,VWS V13.01,2013-03-05 17:45:00,
2013-03-05 09:50:00,52.1,49.3,30.00,NW,316,0.0,4.0,90,0.00,,OVC014,0.00,VWS V13.01,2013-03-05 17:50:00,
2013-03-05 09:55:00,52.1,49.0,30.00,WNW,295,0.0,4.0,89,0.00,,OVC014,0.00,VWS V13.01,2013-03-05 17:55:00,
2013-03-05 10:00:00,52.1,49.3,30.00,WNW,295,0.0,4.0,90,0.00,,OVC014,0.00,VWS V13.01,2013-03-05 18:00:00,
2013-03-05 10:05:00,52.1,49.3,30.00,West,263,0.0,4.0,90,0.00,,OVC016,0.00,VWS V13.01,2013-03-05 18:05:00,
2013-03-05 10:10:00,52.2,49.4,30.00,WSW,242,0.0,1.0,90,0.00,,OVC016,0.00,VWS V13.01,2013-03-05 18:10:00,
2013-03-05 10:15:00,52.3,49.2,30.00,WSW,242,0.0,1.0,89,0.00,,OVC016,0.00,VWS V13.01,2013-03-05 18:15:00,
2013-03-05 10:20:00,52.3,49.2,30.00,WSW,242,0.0,1.0,89,0.00,,OVC016,0.00,VWS V13.01,2013-03-05 18:20:00,
2013-03-05 10:25:00,52.4,49.3,29.99,WSW,242,0.0,1.0,89,0.00,,OVC016,0.00,VWS V13.01,2013-03-05 18:25:00,
2013-03-05 10:30:00,52.6,49.5,29.99,WSW,242,0.0,1.0,89,0.00,,OVC016,0.00,VWS V13.01,2013-03-05 18:30:00,
2013-03-05 10:35:00,52.9,49.5,29.99,WSW,254,0.0,3.0,88,0.00,,OVC016,0.00,VWS V13.01,2013-03-05 18:35:00,
2013-03-05 10:40:00,53.1,49.7,29.99,WSW,254,1.0,2.0,88,0.00,,OVC016,0.00,VWS V13.01,2013-03-05 18:40:00,
2013-03-05 10:45:00,53.4,49.6,29.99,West,276,2.0,4.0,87,0.00,,OVC016,0.00,VWS V13.01,2013-03-05 18:45:00,
2013-03-05 10:50:00,53.5,49.7,29.99,West,279,0.0,4.0,87,0.00,,OVC016,0.00,VWS V13.01,2013-03-05 18:50:00,
2013-03-05 10:55:00,53.6,49.8,29.99,SW,221,0.0,4.0,87,0.00,,OVC016,0.00,VWS V13.01,2013-03-05 18:55:00,
2013-03-05 11:00:00,53.7,49.9,29.99,WNW,297,2.0,4.0,87,0.00,,OVC016,0.00,VWS V13.01,2013-03-05 19:00:00,
2013-03-05 11:05:00,53.6,49.8,29.99,West,273,0.0,4.0,87,0.00,,OVC016,0.00,VWS V13.01,2013-03-05 19:05:00,
2013-03-05 11:10:00,53.8,50.0,29.99,SW,230,0.0,1.0,87,0.00,,OVC016,0.00,VWS V13.01,2013-03-05 19:10:00,
2013-03-05 11:15:00,54.0,50.2,29.99,SW,230,0.0,1.0,87,0.00,,OVC016,0.00,VWS V13.01,2013-03-05 19:15:00,
2013-03-05 11:20:00,54.3,50.2,29.99,West,276,0.0,2.0,86,0.00,,OVC016,0.00,VWS V13.01,2013-03-05 19:20:00,
2013-03-05 11:25:00,54.3,50.2,29.99,SW,234,0.0,3.0,86,0.00,,OVC016,0.00,VWS V13.01,2013-03-05 19:25:00,
2013-03-05 11:30:00,54.3,50.2,29.99,NW,321,1.0,4.0,86,0.00,,OVC016,0.00,VWS V13.01,2013-03-05 19:30:00,
2013-03-05 11:35:00,54.3,50.2,29.99,WNW,287,2.0,4.0,86,0.00,,OVC016,0.00,VWS V13.01,2013-03-05 19:35:00,
2013-03-05 11:40:00,54.3,50.2,29.99,NW,324,0.0,1.0,86,0.00,,OVC016,0.00,VWS V13.01,2013-03-05 19:40:00,
2013-03-05 11:45:00,54.4,50.3,29.99,NW,304,2.0,4.0,86,0.00,,OVC016,0.00,VWS V13.01,2013-03-05 19:45:00,
2013-03-05 11:50:00,54.4,50.0,29.99,WSW,246,0.0,4.0,85,0.00,,OVC016,0.00,VWS V13.01,2013-03-05 19:50:00,
2013-03-05 11:55:00,54.4,50.3,29.99,WSW,246,1.0,4.0,86,0.00,,OVC016,0.00,VWS V13.01,2013-03-05 19:55:00,
2013-03-05 12:00:00,54.4,50.0,29.98,West,269,1.0,4.0,85,0.00,,OVC016,0.00,VWS V13.01,2013-03-05 20:00:00,
2013-03-05 12:05:00,54.5,50.1,29.98,WNW,295,0.0,4.0,85,0.00,,OVC013,0.00,VWS V13.01,2013-03-05 20:05:00,
2013-03-05 12:10:00,54.7,50.3,29.98,West,262,0.0,4.0,85,0.00,,OVC013,0.00,VWS V13.01,2013-03-05 20:10:00,
2013-03-05 12:15:00,54.8,50.1,29.98,West,263,0.0,4.0,84,0.00,,OVC013,0.00,VWS V13.01,2013-03-05 20:15:00,
2013-03-05 12:20:00,55.0,50.3,29.97,NW,306,2.0,4.0,84,0.00,,OVC013,0.00,VWS V13.01,2013-03-05 20:20:00,
2013-03-05 12:25:00,55.1,50.4,29.97,West,269,0.0,4.0,84,0.00,,OVC013,0.00,VWS V13.01,2013-03-05 20:25:00,
2013-03-05 12:30:00,55.5,50.8,29.97,West,272,0.0,4.0,84,0.00,,OVC013,0.00,VWS V13.01,2013-03-05 20:30:00,
2013-03-05 12:35:00,55.8,50.7,29.96,West,273,2.0,4.0,83,0.00,,OVC013,0.00,VWS V13.01,2013-03-05 20:35:00,
2013-03-05 12:40:00,55.9,50.5,29.96,NW,310,1.0,3.0,82,0.00,,OVC013,0.00,VWS V13.01,2013-03-05 20:40:00,
2013-03-05 12:45:00,56.0,50.6,29.96,West,268,0.0,3.0,82,0.00,,OVC013,0.00,VWS V13.01,2013-03-05 20:45:00,
2013-03-05 12:50:00,56.3,50.9,29.96,West,268,0.0,3.0,82,0.00,,OVC013,0.00,VWS V13.01,2013-03-05 20:50:00,
2013-03-05 12:56:00,56.7,50.9,29.95,NNW,344,0.0,3.0,81,0.00,,OVC013,0.00,VWS V13.01,2013-03-05 20:56:00,
2013-03-05 13:01:00,57.1,51.0,29.95,West,267,0.0,4.0,80,0.00,,OVC013,0.00,VWS V13.01,2013-03-05 21:01:00,
2013-03-05 13:06:00,57.7,51.6,29.95,WNW,292,1.0,4.0,80,0.00,,OVC015,0.00,VWS V13.01,2013-03-05 21:06:00,
2013-03-05 13:11:00,58.0,51.5,29.95,West,267,2.0,4.0,79,0.00,,OVC015,0.00,VWS V13.01,2013-03-05 21:11:00,
2013-03-05 13:16:00,58.4,51.9,29.94,West,272,1.0,4.0,79,0.00,,OVC015,0.00,VWS V13.01,2013-03-05 21:16:00,
2013-03-05 13:21:00,59.3,51.8,29.94,WSW,246,0.0,4.0,76,0.00,,OVC015,0.00,VWS V13.01,2013-03-05 21:21:00,
2013-03-05 13:26:00,59.8,51.9,29.94,WNW,296,2.0,5.0,75,0.00,,OVC015,0.00,VWS V13.01,2013-03-05 21:26:00,
2013-03-05 13:31:00,60.3,52.0,29.94,West,266,0.0,5.0,74,0.00,,OVC015,0.00,VWS V13.01,2013-03-05 21:31:00,
2013-03-05 13:36:00,61.0,52.3,29.93,WSW,258,1.0,5.0,73,0.00,,OVC015,0.00,VWS V13.01,2013-03-05 21:36:00,
2013-03-05 13:41:00,61.3,52.2,29.93,WSW,257,0.0,5.0,72,0.00,,OVC015,0.00,VWS V13.01,2013-03-05 21:41:00,
2013-03-05 13:46:00,61.5,52.4,29.93,WSW,258,1.0,5.0,72,0.00,,OVC015,0.00,VWS V13.01,2013-03-05 21:46:00,
2013-03-05 13:51:00,62.0,52.5,29.93,West,262,0.0,5.0,71,0.00,,OVC015,0.00,VWS V13.01,2013-03-05 21:51:00,
2013-03-05 13:56:00,62.3,52.8,29.93,WSW,258,2.0,5.0,71,0.00,,OVC015,0.00,VWS V13.01,2013-03-05 21:56:00,
2013-03-05 14:01:00,62.2,51.9,29.93,West,279,5.0,5.0,69,0.00,,OVC015,0.00,VWS V13.01,2013-03-05 22:01:00,
2013-03-05 14:06:00,62.1,52.2,29.93,WNW,292,0.0,5.0,70,0.00,,OVC017,0.00,VWS V13.01,2013-03-05 22:06:00,
2013-03-05 14:11:00,62.8,52.1,29.93,SW,220,0.0,4.0,68,0.00,,OVC017,0.00,VWS V13.01,2013-03-05 22:11:00,
2013-03-05 14:16:00,63.2,52.5,29.92,West,264,1.0,4.0,68,0.00,,OVC017,0.00,VWS V13.01,2013-03-05 22:16:00,
2013-03-05 14:21:00,63.4,52.7,29.92,WNW,289,2.0,5.0,68,0.00,,OVC017,0.00,VWS V13.01,2013-03-05 22:21:00,
2013-03-05 14:26:00,63.3,52.6,29.92,SW,232,0.0,5.0,68,0.00,,OVC017,0.00,VWS V13.01,2013-03-05 22:26:00,
2013-03-05 14:31:00,63.4,52.3,29.92,West,274,3.0,6.0,67,0.00,,OVC017,0.00,VWS V13.01,2013-03-05 22:31:00,
2013-03-05 14:36:00,63.1,51.6,29.92,WSW,250,2.0,6.0,66,0.00,,OVC017,0.00,VWS V13.01,2013-03-05 22:36:00,
2013-03-05 14:41:00,63.1,52.0,29.92,West,281,3.0,4.0,67,0.00,,OVC017,0.00,VWS V13.01,2013-03-05 22:41:00,
2013-03-05 14:46:00,62.9,52.2,29.92,West,260,6.0,7.0,68,0.00,,OVC017,0.00,VWS V13.01,2013-03-05 22:46:00,
2013-03-05 14:51:00,62.4,52.1,29.92,WNW,285,4.0,8.0,69,0.00,,OVC017,0.00,VWS V13.01,2013-03-05 22:51:00,
2013-03-05 14:56:00,62.1,51.8,29.92,WNW,289,2.0,8.0,69,0.00,,OVC017,0.00,VWS V13.01,2013-03-05 22:56:00,
2013-03-05 15:01:00,62.4,52.5,29.92,NNW,329,7.0,8.0,70,0.00,,OVC017,0.00,VWS V13.01,2013-03-05 23:01:00,
2013-03-05 15:06:00,62.6,52.3,29.92,NW,318,2.0,8.0,69,0.00,,BKN019,0.00,VWS V13.01,2013-03-05 23:06:00,
2013-03-05 15:11:00,62.1,52.2,29.92,WSW,250,4.0,10.0,70,0.00,,BKN019,0.00,VWS V13.01,2013-03-05 23:11:00,
2013-03-05 15:16:00,61.5,52.0,29.92,WNW,290,3.0,10.0,71,0.00,,BKN019,0.00,VWS V13.01,2013-03-05 23:16:00,
2013-03-05 15:21:00,61.3,52.2,29.92,WSW,244,3.0,10.0,72,0.00,,BKN019,0.00,VWS V13.01,2013-03-05 23:21:00,
2013-03-05 15:26:00,61.3,52.2,29.92,NNW,343,2.0,11.0,72,0.00,,BKN019,0.00,VWS V13.01,2013-03-05 23:26:00,
2013-03-05 15:31:00,61.5,52.0,29.92,SW,217,3.0,11.0,71,0.00,,BKN019,0.00,VWS V13.01,2013-03-05 23:31:00,
2013-03-05 15:36:00,61.1,51.6,29.92,WNW,298,2.0,11.0,71,0.00,,BKN019,0.00,VWS V13.01,2013-03-05 23:36:00,
2013-03-05 15:41:00,60.3,51.6,29.92,West,273,1.0,4.0,73,0.00,,BKN019,0.00,VWS V13.01,2013-03-05 23:41:00,
2013-03-05 15:46:00,59.5,51.2,29.92,WSW,251,2.0,6.0,74,0.00,,BKN019,0.00,VWS V13.01,2013-03-05 23:46:00,
2013-03-05 15:51:00,58.5,51.0,29.92,WNW,288,5.0,7.0,76,0.00,,BKN019,0.00,VWS V13.01,2013-03-05 23:51:00,
2013-03-05 15:56:00,57.6,50.8,29.93,NW,318,2.0,9.0,78,0.00,,BKN019,0.00,VWS V13.01,2013-03-05 23:56:00,
2013-03-05 16:01:00,57.1,50.7,29.93,South,190,1.0,9.0,79,0.00,,BKN021,0.00,VWS V13.01,2013-03-06 00:01:00,
2013-03-05 16:06:00,56.6,50.2,29.93,WNW,286,6.0,9.0,79,0.00,,BKN021,0.00,VWS V13.01,2013-03-06 00:06:00,
2013-03-05 16:11:00,56.1,50.4,29.93,North,355,0.0,6.0,81,0.00,,BKN021,0.00,VWS V13.01,2013-03-06 00:11:00,
2013-03-05 16:17:00,55.9,50.2,29.93,WNW,296,2.0,6.0,81,0.00,,BKN021,0.00,VWS V13.01,2013-03-06 00:17:00,
2013-03-05 16:22:00,55.6,49.9,29.93,West,269,2.0,6.0,81,0.00,,BKN021,0.00,VWS V13.01,2013-03-06 00:22:00,
2013-03-05 16:27:00,55.3,49.9,29.93,WNW,303,2.0,6.0,82,0.00,,BKN021,0.00,VWS V13.01,2013-03-06 00:27:00,
2013-03-05 16:32:00,54.9,49.8,29.93,WSW,257,2.0,8.0,83,0.00,,BKN021,0.00,VWS V13.01,2013-03-06 00:32:00,
2013-03-05 16:37:00,54.5,49.5,29.93,South,188,1.0,8.0,83,0.00,,BKN021,0.00,VWS V13.01,2013-03-06 00:37:00,
2013-03-05 16:42:00,54.3,49.3,29.93,WNW,302,3.0,6.0,83,0.00,,BKN021,0.00,VWS V13.01,2013-03-06 00:42:00,
2013-03-05 16:47:00,54.1,49.4,29.93,NNW,331,3.0,6.0,84,0.00,,BKN021,0.00,VWS V13.01,2013-03-06 00:47:00,
2013-03-05 16:52:00,53.9,49.2,29.93,WSW,257,2.0,6.0,84,0.00,,BKN021,0.00,VWS V13.01,2013-03-06 00:52:00,
2013-03-05 16:57:00,53.7,49.0,29.93,NW,314,3.0,6.0,84,0.00,,BKN021,0.00,VWS V13.01,2013-03-06 00:57:00,
2013-03-05 17:02:00,53.5,49.1,29.94,West,268,0.0,6.0,85,0.00,,BKN019,0.00,VWS V13.01,2013-03-06 01:02:00,
2013-03-05 17:07:00,53.4,49.0,29.94,WSW,246,0.0,6.0,85,0.00,,BKN019,0.00,VWS V13.01,2013-03-06 01:07:00,
2013-03-05 17:12:00,53.3,48.9,29.94,WSW,249,1.0,4.0,85,0.00,,BKN019,0.00,VWS V13.01,2013-03-06 01:12:00,
2013-03-05 17:17:00,53.2,48.8,29.94,NW,306,1.0,4.0,85,0.00,,BKN019,0.00,VWS V13.01,2013-03-06 01:17:00,
2013-03-05 17:22:00,53.2,49.1,29.94,SW,217,1.0,4.0,86,0.00,,BKN019,0.00,VWS V13.01,2013-03-06 01:22:00,
2013-03-05 17:27:00,53.0,48.9,29.94,NW,321,2.0,5.0,86,0.00,,BKN019,0.00,VWS V13.01,2013-03-06 01:27:00,
2013-03-05 17:32:00,52.9,48.8,29.94,NW,311,0.0,5.0,86,0.00,,BKN019,0.00,VWS V13.01,2013-03-06 01:32:00,
2013-03-05 17:37:00,52.8,48.7,29.94,WNW,294,1.0,5.0,86,0.00,,BKN019,0.00,VWS V13.01,2013-03-06 01:37:00,
2013-03-05 17:42:00,52.7,48.6,29.94,NW,311,2.0,4.0,86,0.00,,BKN019,0.00,VWS V13.01,2013-03-06 01:42:00,
2013-03-05 17:52:00,52.4,48.3,29.94,SW,234,0.0,4.0,86,0.00,,BKN019,0.00,VWS V13.01,2013-03-06 01:52:00,
2013-03-05 17:57:00,52.3,48.5,29.94,West,274,3.0,4.0,87,0.00,,BKN019,0.00,VWS V13.01,2013-03-06 01:57:00,
2013-03-05 18:02:00,52.3,48.2,29.94,NW,317,3.0,4.0,86,0.00,,OVC019,0.00,VWS V13.01,2013-03-06 02:02:00,
2013-03-05 18:07:00,52.3,48.2,29.94,SSW,196,1.0,4.0,86,0.00,,OVC019,0.00,VWS V13.01,2013-03-06 02:07:00,
2013-03-05 18:12:00,52.3,48.2,29.95,SSW,212,0.0,2.0,86,0.00,,OVC019,0.00,VWS V13.01,2013-03-06 02:12:00,
2013-03-05 18:17:00,52.3,48.2,29.94,SW,226,2.0,3.0,86,0.00,,OVC019,0.00,VWS V13.01,2013-03-06 02:17:00,
2013-03-05 18:22:00,52.2,48.2,29.95,WSW,250,1.0,3.0,86,0.00,,OVC019,0.00,VWS V13.01,2013-03-06 02:22:00,
2013-03-05 18:27:00,52.2,48.2,29.95,WSW,256,1.0,3.0,86,0.00,,OVC019,0.00,VWS V13.01,2013-03-06 02:27:00,
2013-03-05 18:32:00,52.2,48.2,29.95,SW,220,1.0,3.0,86,0.00,,OVC019,0.00,VWS V13.01,2013-03-06 02:32:00,
2013-03-05 18:37:00,52.2,48.2,29.95,SW,234,1.0,3.0,86,0.00,,OVC019,0.00,VWS V13.01,2013-03-06 02:37:00,
2013-03-05 18:42:00,52.1,48.0,29.95,NNW,327,1.0,4.0,86,0.00,,OVC019,0.00,VWS V13.01,2013-03-06 02:42:00,
2013-03-05 18:47:00,52.1,48.0,29.95,NW,325,1.0,4.0,86,0.00,,OVC019,0.00,VWS V13.01,2013-03-06 02:47:00,
2013-03-05 18:52:00,52.1,48.0,29.96,SSE,168,0.0,4.0,86,0.00,,OVC019,0.00,VWS V13.01,2013-03-06 02:52:00,
2013-03-05 18:57:00,51.9,47.8,29.96,NW,311,5.0,5.0,86,0.00,,OVC019,0.00,VWS V13.01,2013-03-06 02:57:00,
2013-03-05 19:02:00,51.8,47.8,29.96,West,263,0.0,5.0,86,0.00,,OVC015,0.00,VWS V13.01,2013-03-06 03:02:00,
2013-03-05 19:07:00,51.8,47.8,29.96,West,265,0.0,5.0,86,0.00,,OVC015,0.00,VWS V13.01,2013-03-06 03:07:00,
2013-03-05 19:12:00,51.8,47.8,29.96,WSW,254,0.0,3.0,86,0.00,,OVC015,0.00,VWS V13.01,2013-03-06 03:12:00,
2013-03-05 19:17:00,51.7,47.7,29.96,WNW,300,0.0,3.0,86,0.00,,OVC015,0.00,VWS V13.01,2013-03-06 03:17:00,
2013-03-05 19:22:00,51.7,47.7,29.96,WNW,289,0.0,3.0,86,0.00,,OVC015,0.00,VWS V13.01,2013-03-06 03:22:00,
2013-03-05 19:27:00,51.6,47.6,29.96,West,276,3.0,3.0,86,0.00,,OVC015,0.00,VWS V13.01,2013-03-06 03:27:00,
2013-03-05 19:32:00,51.5,47.2,29.96,WSW,240,0.0,3.0,85,0.00,,OVC015,0.00,VWS V13.01,2013-03-06 03:32:00,
2013-03-05 19:37:00,51.5,47.5,29.96,WNW,300,1.0,3.0,86,0.00,,OVC015,0.00,VWS V13.01,2013-03-06 03:37:00,
2013-03-05 19:42:00,51.4,47.0,29.96,WNW,296,2.0,3.0,85,0.00,,OVC015,0.00,VWS V13.01,2013-03-06 03:42:00,
2013-03-05 19:47:00,51.4,47.4,29.97,NW,309,1.0,3.0,86,0.00,,OVC015,0.00,VWS V13.01,2013-03-06 03:47:00,
2013-03-05 19:52:00,51.3,47.3,29.97,WNW,289,0.0,5.0,86,0.00,,OVC015,0.00,VWS V13.01,2013-03-06 03:52:00,
2013-03-05 19:57:00,51.2,46.8,29.97,NW,317,0.0,5.0,85,0.00,,OVC015,0.00,VWS V13.01,2013-03-06 03:57:00,
2013-03-05 20:02:00,51.3,47.0,29.98,WNW,284,0.0,5.0,85,0.00,,OVC017,0.00,VWS V13.01,2013-03-06 04:02:00,
2013-03-05 20:07:00,51.3,47.0,29.98,WNW,284,2.0,5.0,85,0.00,,OVC017,0.00,VWS V13.01,2013-03-06 04:07:00,
2013-03-05 20:12:00,51.3,47.0,29.98,NW,308,1.0,5.0,85,0.00,,OVC017,0.00,VWS V13.01,2013-03-06 04:12:00,
2013-03-05 20:18:00,51.3,47.0,29.98,NW,307,0.0,5.0,85,0.00,,OVC017,0.00,VWS V13.01,2013-03-06 04:18:00,
2013-03-05 20:23:00,51.3,47.0,29.98,NW,307,0.0,5.0,85,0.00,,OVC017,0.00,VWS V13.01,2013-03-06 04:23:00,
2013-03-05 20:28:00,51.4,47.0,29.98,SSE,160,0.0,5.0,85,0.00,,OVC017,0.00,VWS V13.01,2013-03-06 04:28:00,
2013-03-05 20:33:00,51.3,47.0,29.98,SSE,157,0.0,5.0,85,0.00,,OVC017,0.00,VWS V13.01,2013-03-06 04:33:00,
2013-03-05 20:38:00,51.4,47.0,29.98,SSE,157,0.0,5.0,85,0.00,,OVC017,0.00,VWS V13.01,2013-03-06 04:38:00,
2013-03-05 20:43:00,51.4,47.0,29.98,ESE,111,0.0,1.0,85,0.00,,OVC017,0.00,VWS V13.01,2013-03-06 04:43:00,
2013-03-05 20:48:00,51.3,47.0,29.98,WNW,296,2.0,3.0,85,0.00,,OVC017,0.00,VWS V13.01,2013-03-06 04:48:00,
2013-03-05 20:53:00,51.2,47.2,29.98,SW,229,0.0,3.0,86,0.00,,OVC017,0.00,VWS V13.01,2013-03-06 04:53:00,
2013-03-05 20:58:00,51.2,47.2,29.98,SW,229,0.0,3.0,86,0.00,,OVC017,0.00,VWS V13.01,2013-03-06 04:58:00,
2013-03-05 21:03:00,51.2,47.5,29.98,WNW,288,0.0,3.0,87,0.00,,OVC031,0.00,VWS V13.01,2013-03-06 05:03:00,
2013-03-05 21:08:00,51.1,47.4,29.99,WNW,286,0.0,3.0,87,0.00,,OVC031,0.00,VWS V13.01,2013-03-06 05:08:00,
2013-03-05 21:13:00,51.0,47.6,29.99,South,172,0.0,1.0,88,0.00,,OVC031,0.00,VWS V13.01,2013-03-06 05:13:00,
2013-03-05 21:18:00,50.9,47.8,29.99,WSW,249,0.0,2.0,89,0.00,,OVC031,0.00,VWS V13.01,2013-03-06 05:18:00,
2013-03-05 21:23:00,50.8,48.0,29.99,South,178,0.0,2.0,90,0.00,,OVC031,0.00,VWS V13.01,2013-03-06 05:23:00,
2013-03-05 21:28:00,50.6,47.8,29.99,West,272,1.0,3.0,90,0.00,,OVC031,0.00,VWS V13.01,2013-03-06 05:28:00,
2013-03-05 21:33:00,50.4,47.9,30.00,NW,309,0.0,3.0,91,0.00,,OVC031,0.00,VWS V13.01,2013-03-06 05:33:00,
2013-03-05 21:38:00,50.3,47.8,29.99,SSW,199,0.0,3.0,91,0.00,,OVC031,0.00,VWS V13.01,2013-03-06 05:38:00,
2013-03-05 21:43:00,50.2,48.0,30.00,South,178,0.0,2.0,92,0.00,,OVC031,0.00,VWS V13.01,2013-03-06 05:43:00,
2013-03-05 21:48:00,50.1,47.9,30.00,SW,217,0.0,2.0,92,0.00,,OVC031,0.00,VWS V13.01,2013-03-06 05:48:00,
2013-03-05 21:53:00,50.0,47.8,30.00,SW,231,0.0,2.0,92,0.00,,OVC031,0.00,VWS V13.01,2013-03-06 05:53:00,
2013-03-05 21:58:00,49.9,47.7,30.00,SW,231,0.0,2.0,92,0.00,,OVC031,0.00,VWS V13.01,2013-03-06 05:58:00,
2013-03-05 22:03:00,49.9,47.7,30.00,WSW,244,0.0,2.0,92,0.00,,OVC030,0.00,VWS V13.01,2013-03-06 06:03:00,
2013-03-05 22:08:00,49.8,47.9,30.00,WNW,303,3.0,3.0,93,0.00,,OVC030,0.00,VWS V13.01,2013-03-06 06:08:00,
2013-03-05 22:13:00,49.8,47.9,30.00,WNW,295,0.0,3.0,93,0.00,,OVC030,0.00,VWS V13.01,2013-03-06 06:13:00,
2013-03-05 22:18:00,49.8,47.9,30.00,West,262,0.0,3.0,93,0.00,,OVC030,0.00,VWS V13.01,2013-03-06 06:18:00,
2013-03-05 22:23:00,49.7,47.8,30.00,West,266,0.0,3.0,93,0.00,,OVC030,0.00,VWS V13.01,2013-03-06 06:23:00,
2013-03-05 22:28:00,49.7,47.8,30.00,SW,236,2.0,3.0,93,0.00,,OVC030,0.00,VWS V13.01,2013-03-06 06:28:00,
2013-03-05 22:33:00,49.7,47.8,30.00,WSW,246,0.0,3.0,93,0.01,,OVC030,0.01,VWS V13.01,2013-03-06 06:33:00,
2013-03-05 22:38:00,49.7,47.8,30.00,WSW,246,1.0,1.0,93,0.01,,OVC030,0.01,VWS V13.01,2013-03-06 06:38:00,
2013-03-05 22:43:00,49.7,47.8,30.00,SSW,200,0.0,1.0,93,0.01,,OVC030,0.01,VWS V13.01,2013-03-06 06:43:00,
2013-03-05 22:48:00,49.7,47.8,30.00,SSW,200,0.0,1.0,93,0.01,,OVC030,0.01,VWS V13.01,2013-03-06 06:48:00,
2013-03-05 22:53:00,49.7,48.0,30.00,SSW,200,0.0,1.0,94,0.01,,OVC030,0.01,VWS V13.01,2013-03-06 06:53:00,
2013-03-05 22:58:00,49.6,48.0,30.00,WNW,296,0.0,2.0,94,0.01,,OVC030,0.01,VWS V13.01,2013-03-06 06:58:00,
2013-03-05 23:03:00,49.6,48.0,30.00,WSW,240,0.0,2.0,94,0.02,,OVC023,0.02,VWS V13.01,2013-03-06 07:03:00,
2013-03-05 23:08:00,49.6,48.0,30.00,WSW,244,0.0,0.0,94,0.02,,OVC023,0.02,VWS V13.01,2013-03-06 07:08:00,
2013-03-05 23:13:00,49.5,47.8,30.00,WSW,245,0.0,1.0,94,0.02,,OVC023,0.02,VWS V13.01,2013-03-06 07:13:00,
2013-03-05 23:18:00,49.5,47.8,30.00,WNW,297,0.0,3.0,94,0.02,,OVC023,0.02,VWS V13.01,2013-03-06 07:18:00,
2013-03-05 23:23:00,49.4,47.8,30.00,WNW,295,1.0,3.0,94,0.02,,OVC023,0.02,VWS V13.01,2013-03-06 07:23:00,
2013-03-05 23:28:00,49.4,47.8,30.01,WNW,282,0.0,3.0,94,0.02,,OVC023,0.02,VWS V13.01,2013-03-06 07:28:00,
2013-03-05 23:33:00,49.4,47.8,30.01,West,279,0.0,3.0,94,0.02,,OVC023,0.02,VWS V13.01,2013-03-06 07:33:00,
2013-03-05 23:38:00,49.3,47.7,30.01,West,279,0.0,1.0,94,0.02,,OVC023,0.02,VWS V13.01,2013-03-06 07:38:00,
2013-03-05 23:43:00,49.4,47.8,30.01,West,279,0.0,1.0,94,0.01,,OVC023,0.02,VWS V13.01,2013-03-06 07:43:00,
2013-03-05 23:48:00,49.4,47.8,30.01,West,279,0.0,1.0,94,0.01,,OVC023,0.02,VWS V13.01,2013-03-06 07:48:00,
2013-03-05 23:53:00,49.4,47.8,30.01,West,279,0.0,1.0,94,0.01,,OVC023,0.02,VWS V13.01,2013-03-06 07:53:00,
2013-03-05 23:58:00,49.4,47.8,30.01,WNW,289,3.0,3.0,94,0.01,,OVC023,0.02,VWS V13.01,2013-03-06 07:58:00,